Weather History for PAKN - June, 2013

Change the Weather History Date:

Tuesday, June 25, 2013

  Actual Average Record
Temperature  
Mean Temperature 62 °F 54 °F  
Max Temperature 75 °F 63 °F 83 °F (1953)
Min Temperature 48 °F 44 °F 33 °F (1976)
Degree Days  
Heating Degree Days 3 12  
Month to date heating degree days 240 352  
Since 1 June heating degree days 240 352  
Since 1 July heating degree days 11225 10821  
Cooling Degree Days 0    
Month to date cooling degree days 0  
Year to date cooling degree days 0  
Since 1 June cooling degree days 0  
Growing Degree Days 12 (Base 50)    
Moisture  
Dew Point 52 °F    
Average Humidity 0    
Maximum Humidity 0    
Minimum Humidity 0    
Precipitation  
Precipitation 0.00 in 0.06 in 0.38 in (1942)
Month to date precipitation 0.30 1.35  
Year to date precipitation 6.66 6.05  
Snow  
Snow 0.00 in 0.00 in 0.00 in (2015)
Month to date snowfall 0.0 0.0  
Since 1 June snowfall 0.0 0.0  
Since 1 July snowfall 75.3 46.6  
Snow Depth 0.00 in    
Sea Level Pressure  
Sea Level Pressure 29.68 in    
Wind  
Wind Speed 7 mph (WSW)    
Max Wind Speed 18 mph    
Max Gust Speed 22 mph    
Visibility 8 miles    
Events Fog    
T = Trace of Precipitation, MM = Missing Value Source: NWS Daily Summary

Daily Weather History Graph

Daily Weather History Graph

Search for Another Location

Airport or City:

Trip Planner

Search our weather history database for the weather conditions in past years. The results will help you decide how hot, cold, wet, or windy it might be!

Date:

Astronomy

Jun. 25, 2013 Rise Set
Actual Time 5:18 AM AKDT 11:40 PM AKDT
Civil Twilight 3:55 AM AKDT 1:02 AM AKDT
Nautical Twilight Sun does not set Sun does not set
Astronomical Twilight Sun does not set Sun does not set
Moon 12:06 AM AKDT (6/25) 9:01 AM AKDT (6/25)
Length of Visible Light 21h 06m
Length of Day
18h 22m
Waning Gibbous, 92% of the Moon is Illuminated
Jun 25
Waning Gibbous
Jun 29
Last Quarter
Jul 7
New
Jul 15
First Quarter
Jul 22
Full

Hourly Weather History & Observations

Time (AKDT) Temp. Dew Point Humidity Pressure Visibility Wind Dir Wind Speed Gust Speed Precip Events Conditions
12:54 AM 54.0 °F 51.1 °F 90% 29.68 in 10.0 mi West 5.8 mph - N/A   Mostly Cloudy
1:54 AM 54.0 °F 51.1 °F 90% 29.69 in 10.0 mi Calm Calm - N/A   Mostly Cloudy
2:54 AM 53.1 °F 51.1 °F 93% 29.69 in 10.0 mi SSW 3.5 mph - N/A   Mostly Cloudy
3:54 AM 51.1 °F 50.0 °F 96% 29.69 in 10.0 mi Calm Calm - N/A   Scattered Clouds
4:16 AM 51.8 °F 50.0 °F 94% 29.69 in 10.0 mi SW 3.5 mph - N/A   Mostly Cloudy
4:54 AM 51.1 °F 51.1 °F 100% 29.68 in 10.0 mi Calm Calm - N/A   Mostly Cloudy
5:51 AM 48.2 °F 48.2 °F 100% 29.69 in 4.0 mi ESE 3.5 mph - N/A   Overcast
5:54 AM 48.9 °F 48.0 °F 97% 29.69 in 6.0 mi SE 3.5 mph - N/A   Overcast
6:25 AM 51.8 °F 51.8 °F 100% 29.69 in 2.5 mi South 3.5 mph - N/A   Overcast
6:35 AM 51.8 °F 51.8 °F 100% 29.69 in 0.8 mi SSW 5.8 mph - N/A   Overcast
6:54 AM 51.1 °F 51.1 °F 100% 29.69 in 0.2 mi South 4.6 mph - N/A Fog Fog
7:50 AM 51.8 °F 51.8 °F 100% 29.69 in 0.5 mi West 3.5 mph - N/A Fog Fog
7:54 AM 52.0 °F 52.0 °F 100% 29.69 in 0.8 mi Calm Calm - N/A   Mist
8:05 AM 51.8 °F 51.8 °F 100% 29.69 in 2.0 mi Calm Calm - N/A   Overcast
8:15 AM 51.8 °F 51.8 °F 100% 29.69 in 8.0 mi Calm Calm - N/A   Overcast
8:54 AM 53.1 °F 53.1 °F 100% 29.70 in 10.0 mi Calm Calm - N/A   Overcast
9:06 AM 53.6 °F 53.6 °F 100% 29.69 in 10.0 mi Calm Calm - N/A   Mostly Cloudy
9:54 AM 57.9 °F 54.0 °F 87% 29.69 in 10.0 mi WSW 3.5 mph - N/A   Mostly Cloudy
10:08 AM 60.8 °F 53.6 °F 77% 29.69 in 10.0 mi West 5.8 mph - N/A   Mostly Cloudy
10:54 AM 62.1 °F 53.1 °F 72% 29.69 in 10.0 mi WNW 6.9 mph - N/A   Mostly Cloudy
11:54 AM 64.9 °F 53.1 °F 65% 29.68 in 10.0 mi WNW 5.8 mph - N/A   Mostly Cloudy
12:54 PM 69.1 °F 54.0 °F 58% 29.68 in 10.0 mi West 8.1 mph - N/A   Mostly Cloudy
1:54 PM 68.0 °F 52.0 °F 56% 29.68 in 10.0 mi West 5.8 mph - N/A   Mostly Cloudy
2:54 PM 69.1 °F 52.0 °F 54% 29.68 in 10.0 mi Variable 4.6 mph - N/A   Mostly Cloudy
3:54 PM 70.0 °F 52.0 °F 53% 29.67 in 10.0 mi NNW 4.6 mph - N/A   Mostly Cloudy
4:54 PM 73.0 °F 52.0 °F 48% 29.66 in 10.0 mi NW 6.9 mph - N/A   Mostly Cloudy
5:54 PM 73.9 °F 53.1 °F 48% 29.66 in 10.0 mi West 12.7 mph - N/A   Mostly Cloudy
6:54 PM 71.1 °F 53.1 °F 53% 29.67 in 10.0 mi West 13.8 mph - N/A   Mostly Cloudy
7:54 PM 71.1 °F 53.1 °F 53% 29.67 in 10.0 mi West 15.0 mph - N/A   Mostly Cloudy
8:54 PM 66.9 °F 53.1 °F 61% 29.68 in 10.0 mi West 12.7 mph - N/A   Mostly Cloudy
9:54 PM 64.0 °F 53.1 °F 67% 29.68 in 10.0 mi West 16.1 mph - N/A   Mostly Cloudy
10:54 PM 61.0 °F 54.0 °F 78% 29.69 in 10.0 mi West 11.5 mph - N/A   Mostly Cloudy
11:54 PM 59.0 °F 54.0 °F 83% 29.71 in 10.0 mi SSW 6.9 mph - N/A   Mostly Cloudy